This is the latest recevied weather packets stored in our database for station/object K7KRJ-10. If no packets are shown the sender has not sent any weather packets the latest 10 day(s).
| Time | Temp. | Humidity | Pressure | Rain* | Wind** | Luminosity | Snow |
|---|---|---|---|---|---|---|---|
| 1777447497 | 17.78° C | 23% | 1012.8 hPa | 0 mm | - | 0 W/m² | - |
| 1777446594 | 18.33° C | 22% | 1012.9 hPa | 0 mm | - | 0 W/m² | - |
| 1777445695 | 18.89° C | 22% | 1012.6 hPa | 0 mm | - | 0 W/m² | - |
| 1777444790 | 19.44° C | 23% | 1012.8 hPa | 0 mm | - | 0 W/m² | - |
| 1777443885 | 20° C | 22% | 1012.6 hPa | 0 mm | - | 0 W/m² | - |
| 1777442980 | 20° C | 23% | 1012.7 hPa | 0 mm | - | 0 W/m² | - |
| 1777442080 | 20.56° C | 22% | 1012.5 hPa | 0 mm | - | 0 W/m² | - |
| 1777441178 | 20.56° C | 21% | 1012.4 hPa | 0 mm | - | 0 W/m² | - |
| 1777440277 | 21.67° C | 20% | 1012.3 hPa | 0 mm | - | 0 W/m² | - |
| 1777439378 | 21.67° C | 19% | 1012.3 hPa | 0 mm | - | 0 W/m² | - |
| 1777438477 | 22.22° C | 19% | 1012.3 hPa | 0 mm | - | 0 W/m² | - |
| 1777437578 | 21.67° C | 19% | 1012.4 hPa | 0 mm | - | 0 W/m² | - |
| 1777436674 | 22.78° C | 18% | 1012.1 hPa | 0 mm | - | 0 W/m² | - |
| 1777435768 | 23.89° C | 17% | 1012.2 hPa | 0 mm | - | 0 W/m² | - |
| 1777434867 | 22.78° C | 17% | 1012.3 hPa | 0 mm | - | 0 W/m² | - |
| 1777433966 | 22.78° C | 17% | 1012.1 hPa | 0 mm | - | 0 W/m² | - |
| 1777433067 | 22.78° C | 16% | 1012 hPa | 0 mm | - | 0 W/m² | - |
| 1777432166 | 24.44° C | 15% | 1012 hPa | 0 mm | - | 0 W/m² | - |
| 1777431263 | 25° C | 14% | 1011.8 hPa | 0 mm | - | 0 W/m² | - |
| 1777430363 | 25.56° C | 13% | 1011.7 hPa | 0 mm | - | 0 W/m² | - |
| 1777429461 | 25.56° C | 12% | 1011.5 hPa | 0 mm | - | 0 W/m² | - |
| 1777428562 | 26.11° C | 12% | 1011.2 hPa | 0 mm | - | 5 W/m² | - |
| 1777427661 | 26.67° C | 11% | 1011.2 hPa | 0 mm | - | 20 W/m² | - |
| 1777426758 | 26.67° C | 10% | 1011.2 hPa | 0 mm | - | 39 W/m² | - |
| 1777425857 | 27.22° C | 12% | 1011.4 hPa | 0 mm | - | 63 W/m² | - |
* Rain latest hour (hover to see other rain measurements)
** Current wind speed in m/s (hover to see current wind gust speed)